Location: Hermaringen
(48.5952°N, 10.2585°E)
Time: 06:16:23
(UTC+00:00)

Altair - Pass Details

Date: 21 February 2026
Orbit: 1502 x 1682 km, 47.2° (Epoch: 9 March)

Event Time Altitude Azimuth Distance (km) Brightness Sun altitude
Rises 09:59:05 0° 290° (WNW) 4,722 9.7 27.4°
Reaches altitude 10° 10:02:37 10° 279° (W) 3,761 9.3 27.7°
Maximum altitude 10:10:19 29° 225° (SW) 2,625 9.3 28.2°
Drops below altitude 10° 10:18:16 10° 170° (S) 3,866 11.2 28.7°
Sets 10:21:59 0° 160° (SSE) 4,873 11.4 28.9°
